Naaldwijk, Netherlands
Current Conditions -  °F | °C
As of 6:25 PM on Thursday 30 Oct 2014 (Local Time) from EHRD Reporting Station
Clear Clear  
Wind Chill: 57°   Ceiling: Unl
Heat Index: 57°   Visibility: 5mi
Dew Point: 55°   Wind: 5mph
Humidity: 94%   Direction: 170°S
Pressure: 30.15"   Gusts: NA
Location:  51.99°N, 4.21°E
Report Text: EHRD 301725Z AUTO 17004KT 150V210 8000 NCD 14/13 Q1021 NOSIG
Loading
Personal Weather Stations






























Interactive Weather Map
Tropical Storm Tracking
New forecast layout! Learn more

10-Day Weather Forecast

Advertisements
Track Severe Weather on mobile